This is the latest recevied weather packets stored in our database for station/object WX7EM. If no packets are shown the sender has not sent any weather packets the latest 10 day(s).
| Time | Temp. | Humidity | Pressure | Rain* | Wind** | Luminosity | Snow |
|---|---|---|---|---|---|---|---|
| 1777430633 | 14.44° C | 56% | 1021.5 hPa | 0 mm | - | 20 W/m² | - |
| 1777430328 | 14.44° C | 56% | 1021.4 hPa | 0 mm | - | 20 W/m² | - |
| 1777430023 | 14.44° C | 55% | 1021.5 hPa | 0 mm | - | 22 W/m² | - |
| 1777429720 | 14.44° C | 55% | 1021.4 hPa | 0 mm | - | 26 W/m² | - |
| 1777429416 | 14.44° C | 55% | 1021.5 hPa | 0 mm | - | 32 W/m² | - |
| 1777429112 | 15° C | 54% | 1021.4 hPa | 0 mm | - | 34 W/m² | - |
| 1777428809 | 15° C | 54% | 1021.4 hPa | 0 mm | - | 37 W/m² | - |
| 1777428504 | 15.56° C | 52% | 1021.3 hPa | 0 mm | - | 48 W/m² | - |
| 1777428200 | 15.56° C | 52% | 1021.4 hPa | 0 mm | - | 59 W/m² | - |
| 1777427896 | 15.56° C | 53% | 1021.3 hPa | 0 mm | - | 74 W/m² | - |
| 1777427592 | 16.11° C | 51% | 1021.3 hPa | 0 mm | - | 67 W/m² | - |
| 1777427289 | 16.11° C | 51% | 1021.4 hPa | 0 mm | - | 80 W/m² | - |
| 1777426986 | 16.11° C | 50% | 1021.4 hPa | 0 mm | - | 80 W/m² | - |
| 1777426683 | 16.11° C | 50% | 1021.4 hPa | 0 mm | - | 63 W/m² | - |
| 1777426379 | 16.67° C | 51% | 1021.4 hPa | 0 mm | - | 97 W/m² | - |
| 1777426075 | 16.67° C | 50% | 1021.3 hPa | 0 mm | - | 108 W/m² | - |
| 1777425771 | 16.67° C | 50% | 1021.5 hPa | 0 mm | - | 139 W/m² | - |
| 1777425465 | 16.11° C | 51% | 1021.5 hPa | 0 mm | - | 144 W/m² | - |
| 1777425162 | 16.67° C | 50% | 1021.5 hPa | 0 mm | - | 149 W/m² | - |
| 1777424858 | 16.67° C | 51% | 1021.6 hPa | 0 mm | - | 164 W/m² | - |
| 1777424554 | 16.67° C | 51% | 1021.6 hPa | 0 mm | - | 176 W/m² | - |
| 1777424250 | 16.67° C | 50% | 1021.4 hPa | 0 mm | - | 191 W/m² | - |
| 1777423946 | 16.67° C | 51% | 1021.4 hPa | 0 mm | - | 204 W/m² | - |
| 1777423642 | 17.22° C | 50% | 1021.6 hPa | 0 mm | - | 222 W/m² | - |
| 1777423338 | 16.67° C | 51% | 1021.5 hPa | 0 mm | - | 229 W/m² | - |
* Rain latest hour (hover to see other rain measurements)
** Current wind speed in m/s (hover to see current wind gust speed)